Location: Innerarity Island Observatory
(30.3139°N, 87.4867°W)
Time: 23:28:56
(UTC-06:00)

OPAL - Visible Passes

Search period start: 30 January 2015 00:00
Search period end: 09 February 2015 00:00
Orbit: 744 x 796 km, 100.2° (Epoch: 30 January)

Date Brightness Start Highest point End Pass type
(mag) Time Alt. Az. Time Alt. Az. Time Alt. Az.
30 Jan 9.6 04:46:16 10° ESE 04:50:27 26° ENE 04:54:48 10° NNE visible
30 Jan 7.9 18:39:45 10° N 18:44:49 65° WNW 18:49:48 10° SSW visible
31 Jan 10.5 04:14:05 10° E 04:15:28 11° ENE 04:17:13 10° NE visible
31 Jan 7.5 05:48:40 10° S 05:53:50 71° WSW 05:59:04 10° NNW visible
31 Jan 7.7 18:04:35 10° NNE 18:09:32 51° ESE 18:14:26 10° S visible
31 Jan 10.3 19:45:09 10° NNW 19:48:03 15° WNW 19:50:40 10° W visible
01 Feb 8.5 05:13:40 10° SE 05:18:38 49° ENE 05:23:40 10° N visible
01 Feb 9.1 19:08:25 10° N 19:13:01 34° WNW 19:17:28 10° SW visible
02 Feb 9.9 04:39:46 10° ESE 04:43:32 21° ENE 04:47:29 10° NNE visible
02 Feb 8.2 06:17:25 10° SSW 06:22:13 37° W 06:27:00 10° NW visible
02 Feb 7.6 18:32:44 10° NNE 18:37:51 82° WNW 18:42:52 10° SSW visible
03 Feb 7.6 05:41:39 10° SSE 05:46:51 88° WSW 05:52:07 10° NNW visible
03 Feb 7.9 17:57:45 10° NNE 18:02:31 40° E 18:07:13 10° S visible
03 Feb 10.0 19:37:37 10° NNW 19:41:07 18° WNW 19:44:24 10° WSW visible
04 Feb 8.9 05:06:55 10° SE 05:11:41 39° ENE 05:16:32 10° N visible
04 Feb 8.7 19:01:16 10° N 19:06:04 42° WNW 19:10:44 10° SW visible
05 Feb 10.2 04:33:25 10° ESE 04:36:37 17° ENE 04:40:03 10° NNE visible
05 Feb 7.9 06:10:12 10° S 06:15:11 46° WSW 06:20:12 10° NNW visible
05 Feb 7.4 18:25:45 10° NNE 18:30:51 80° ESE 18:35:51 10° SSW visible
06 Feb 7.8 05:34:42 10° SSE 05:39:53 74° ENE 05:45:07 10° N visible
06 Feb 8.2 17:50:59 10° NE 17:55:27 32° E 17:59:54 10° SSE visible
06 Feb 9.7 19:30:14 10° NNW 19:34:11 23° WNW 19:37:58 10° WSW visible
07 Feb 9.3 05:00:14 10° SE 05:04:44 31° ENE 05:09:21 10° N visible
07 Feb 8.2 18:54:09 10° N 18:59:05 53° WNW 19:03:55 10° SSW visible
08 Feb 10.4 04:27:17 10° E 04:29:43 14° ENE 04:32:26 10° NE visible
08 Feb 7.7 06:03:03 10° S 06:08:11 58° WSW 06:13:20 10° NNW visible
08 Feb 7.5 18:18:49 10° NNE 18:23:50 63° ESE 18:28:46 10° S visible
08 Feb 10.4 20:00:16 10° NW 20:02:15 12° WNW 20:03:54 10° W visible
